LEMUR 2 BRIDGEMAN

Last updated on Thu Sep 29 2016 17:45:39 GMT+0000 (Coordinated Universal Time)

1 41596U 16019C 16273.48736275 .00083167 00000-0 77380-3 0 9996 2 41596 51.6376 251.9241 0006594 58.4121 301.7518 15.66643704 15614

Satellite not in orbit